Date String (YYYY-MM-DD hh:mm:ss) UTC,Instrument flags,absolute air pressure of the measurement (hPa),sample flow rate (lpm),inlet stack bypass flow (lpm),air temperature of the measurement (°C),ambient temperature measured by the external sensor (°C),aerosol sample conditioner tube jacket temperature (°C),OPC LED temperature (°C),internal box temperature (°C),relative humidity of the measurement (%),span deviation,mass concentration of particles derived from Lorenz-Mie calculation of OPC scattering (μg/m³),mass concentration of particles derived from Lorenz-Mie calculation of OPC scattering (μg/m³),mass concentration of particles derived from Lorenz-Mie calculation of OPC scattering (μg/m³)
DateTimeUTC,F1_M11,P_M11,Q1_M11,Q2_M11,T1_M11,T2_M11,T3_M11,T4_M11,T5_M11,U1_M11,ZSPAN_M11,X0_M11,X2_M11,X1_M11
2024-02-14 00:00:00,SystemResetWarning,0825.1,4.99,000.00,024.3,023.7,000.0,032.7,026.2,14.0,0000.0,0013.24,0006.08,0005.37
2024-02-14 00:01:00,SystemResetWarning,0825.1,4.99,000.00,024.3,023.7,000.0,032.7,026.2,13.9,0000.0,0013.08,0006.08,0005.40
2024-02-14 00:02:00,SystemResetWarning,0825.1,5.01,000.00,024.3,023.8,000.0,032.7,026.2,13.7,0000.0,0012.77,0006.09,0005.41
2024-02-14 00:03:00,SystemResetWarning,0825.1,5.01,000.00,024.3,023.8,000.0,032.7,026.2,13.7,0000.0,0013.06,0006.13,0005.42
2024-02-14 00:04:00,SystemResetWarning,0825.1,4.99,000.00,024.3,023.8,000.0,032.7,026.2,13.7,0000.0,0013.36,0006.13,0005.43
2024-02-14 00:05:00,SystemResetWarning,0825.1,4.99,000.00,024.3,023.8,000.0,032.7,026.2,13.8,0000.0,0013.25,0006.12,0005.44
2024-02-14 00:06:00,SystemResetWarning,0825.1,4.99,000.00,024.3,023.8,000.0,032.7,026.2,13.8,0000.0,0013.02,0006.12,0005.45
2024-02-14 00:07:00,SystemResetWarning,0825.1,5.01,000.00,024.3,023.8,000.0,032.7,026.2,13.9,0000.0,0012.96,0006.10,0005.44
2024-02-14 00:08:00,SystemResetWarning,0825.1,5.01,000.00,024.3,023.8,000.0,032.7,026.3,14.0,0000.0,0012.08,0006.08,0005.44
2024-02-14 00:09:00,SystemResetWarning,0825.1,5.00,000.00,024.4,023.8,000.0,032.8,026.3,14.0,0000.0,0011.85,0006.06,0005.43
2024-02-14 00:10:00,SystemResetWarning,0825.2,5.00,000.00,024.4,023.8,000.0,032.8,026.3,13.9,0000.0,0011.78,0006.05,0005.43
2024-02-14 00:11:00,SystemResetWarning,0825.2,4.99,000.00,024.4,023.9,000.0,032.8,026.3,13.9,0000.0,0012.33,0006.07,0005.45
2024-02-14 00:12:00,SystemResetWarning,0825.2,5.00,000.00,024.4,023.9,000.0,032.8,026.3,13.8,0000.0,0013.01,0006.08,0005.45
2024-02-14 00:13:00,SystemResetWarning,0825.2,5.01,000.00,024.4,023.9,000.0,032.8,026.3,13.8,0000.0,0012.86,0006.06,0005.45
2024-02-14 00:14:00,SystemResetWarning,0825.3,5.01,000.00,024.4,023.9,000.0,032.8,026.3,13.7,0000.0,0012.38,0006.03,0005.44
2024-02-14 00:15:00,SystemResetWarning,0825.3,5.01,000.00,024.4,023.9,000.0,032.8,026.3,13.7,0000.0,0011.61,0006.03,0005.44
2024-02-14 00:16:00,SystemResetWarning,0825.3,4.99,000.00,024.4,023.9,000.0,032.8,026.3,13.7,0000.0,0011.48,0006.08,0005.44
2024-02-14 00:17:00,SystemResetWarning,0825.2,4.99,000.00,024.4,023.9,000.0,032.8,026.3,13.6,0000.0,0011.67,0006.11,0005.46
2024-02-14 00:18:00,SystemResetWarning,0825.3,5.02,000.00,024.4,023.9,000.0,032.8,026.3,13.6,0000.0,0011.51,0006.14,0005.48
2024-02-14 00:19:00,SystemResetWarning,0825.3,5.01,000.00,024.4,023.9,000.0,032.8,026.3,13.6,0000.0,0011.58,0006.16,0005.49
2024-02-14 00:20:00,SystemResetWarning,0825.3,5.00,000.00,024.4,023.9,000.0,032.9,026.4,13.5,0000.0,0011.98,0006.20,0005.51
2024-02-14 00:21:00,SystemResetWarning,0825.3,5.00,000.00,024.4,023.9,000.0,032.9,026.4,13.5,0000.0,0012.52,0006.23,0005.52
2024-02-14 00:22:00,SystemResetWarning,0825.2,5.00,000.00,024.5,023.9,000.0,032.9,026.4,13.5,0000.0,0012.32,0006.24,0005.52
2024-02-14 00:23:00,SystemResetWarning,0825.3,4.99,000.00,024.5,023.9,000.0,032.9,026.4,13.5,0000.0,0011.53,0006.23,0005.53
2024-02-14 00:24:00,SystemResetWarning,0825.2,5.00,000.00,024.5,023.9,000.0,032.9,026.4,13.2,0000.0,0012.10,0006.22,0005.54
2024-02-14 00:25:00,SystemResetWarning,0825.2,5.00,000.00,024.5,023.9,000.0,032.9,026.4,13.3,0000.0,0012.12,0006.23,0005.55
2024-02-14 00:26:00,SystemResetWarning,0825.2,5.01,000.00,024.5,023.9,000.0,032.9,026.4,13.2,0000.0,0012.93,0006.24,0005.55
2024-02-14 00:27:00,SystemResetWarning,0825.2,5.00,000.00,024.5,023.9,000.0,032.9,026.4,13.1,0000.0,0013.17,0006.24,0005.57
2024-02-14 00:28:00,SystemResetWarning,0825.3,5.00,000.00,024.5,023.9,000.0,032.9,026.3,13.1,0000.0,0012.75,0006.24,0005.57
2024-02-14 00:29:00,SystemResetWarning,0825.2,5.01,000.00,024.5,023.9,000.0,032.9,026.4,13.1,0000.0,0012.73,0006.22,0005.58
2024-02-14 00:30:00,SystemResetWarning,0825.3,5.00,000.00,024.5,023.9,000.0,032.9,026.4,13.1,0000.0,0012.84,0006.22,0005.58
2024-02-14 00:31:00,SystemResetWarning,0825.3,5.00,000.00,024.5,023.9,000.0,032.9,026.4,13.0,0000.0,0012.70,0006.21,0005.57
2024-02-14 00:32:00,SystemResetWarning,0825.3,4.99,000.00,024.5,023.9,000.0,032.9,026.4,13.0,0000.0,0013.04,0006.24,0005.59
2024-02-14 00:33:00,SystemResetWarning,0825.3,4.99,000.00,024.5,023.9,000.0,032.9,026.4,12.9,0000.0,0013.37,0006.25,0005.58
2024-02-14 00:34:00,SystemResetWarning,0825.3,5.01,000.00,024.5,023.9,000.0,032.9,026.4,12.9,0000.0,0013.63,0006.25,0005.57
2024-02-14 00:35:00,SystemResetWarning,0825.3,5.01,000.00,024.5,023.9,000.0,032.9,026.4,13.0,0000.0,0013.20,0006.29,0005.56
2024-02-14 00:36:00,SystemResetWarning,0825.3,5.00,000.00,024.5,023.9,000.0,033.0,026.4,12.9,0000.0,0013.83,0006.29,0005.55
2024-02-14 00:37:00,SystemResetWarning,0825.3,4.99,000.00,024.5,023.9,000.0,033.0,026.4,12.9,0000.0,0014.30,0006.29,0005.55
2024-02-14 00:38:00,SystemResetWarning,0825.3,4.99,000.00,024.5,023.9,000.0,033.0,026.4,12.9,0000.0,0014.13,0006.25,0005.54
2024-02-14 00:39:00,SystemResetWarning,0825.3,5.00,000.00,024.5,023.9,000.0,033.0,026.4,12.9,0000.0,0014.01,0006.20,0005.52
2024-02-14 00:40:00,SystemResetWarning,0825.2,5.00,000.00,024.5,023.9,000.0,033.0,026.4,12.8,0000.0,0014.04,0006.19,0005.50
2024-02-14 00:41:00,SystemResetWarning,0825.2,5.01,000.00,024.5,023.9,000.0,033.0,026.4,12.8,0000.0,0013.90,0006.21,0005.50
2024-02-14 00:42:00,SystemResetWarning,0825.2,5.00,000.00,024.5,023.9,000.0,033.0,026.4,12.7,0000.0,0013.74,0006.20,0005.50
2024-02-14 00:43:00,SystemResetWarning,0825.3,5.00,000.00,024.5,023.9,000.0,033.0,026.4,12.6,0000.0,0012.85,0006.15,0005.48
2024-02-14 00:44:00,SystemResetWarning,0825.2,4.99,000.00,024.5,023.9,000.0,033.0,026.4,12.6,0000.0,0012.99,0006.11,0005.49
2024-02-14 00:45:00,SystemResetWarning,0825.2,4.99,000.00,024.5,023.9,000.0,033.0,026.4,12.6,0000.0,0013.40,0006.08,0005.49
2024-02-14 00:46:00,SystemResetWarning,0825.2,5.00,000.00,024.5,023.9,000.0,033.0,026.4,12.6,0000.0,0013.37,0006.03,0005.47
2024-02-14 00:47:00,SystemResetWarning,0825.3,5.01,000.00,024.5,023.9,000.0,033.0,026.4,12.6,0000.0,0013.07,0006.05,0005.48
2024-02-14 00:48:00,SystemResetWarning,0825.2,5.00,000.00,024.5,023.9,000.0,033.0,026.4,12.6,0000.0,0011.94,0006.10,0005.49
2024-02-14 00:49:00,SystemResetWarning,0825.3,4.99,000.00,024.5,023.9,000.0,033.0,026.4,12.6,0000.0,0011.52,0006.13,0005.48
2024-02-14 00:50:00,SystemResetWarning,0825.3,4.99,000.00,024.5,023.9,000.0,033.0,026.4,12.6,0000.0,0012.53,0006.15,0005.47
2024-02-14 00:51:00,SystemResetWarning,0825.3,5.01,000.00,024.5,023.9,000.0,033.0,026.4,12.6,0000.0,0012.38,0006.10,0005.45
2024-02-14 00:52:00,SystemResetWarning,0825.3,5.01,000.00,024.5,023.9,000.0,033.0,026.4,12.6,0000.0,0012.36,0006.07,0005.43
2024-02-14 00:53:00,SystemResetWarning,0825.3,5.01,000.00,024.5,023.9,000.0,033.0,026.4,12.6,0000.0,0012.56,0006.06,0005.41
2024-02-14 00:54:00,SystemResetWarning,0825.3,5.01,000.00,024.5,023.9,000.0,033.0,026.4,12.6,0000.0,0013.30,0006.02,0005.40
2024-02-14 00:55:00,SystemResetWarning,0825.3,4.99,000.00,024.5,023.9,000.0,033.0,026.5,12.6,0000.0,0013.36,0006.04,0005.39
2024-02-14 00:56:00,SystemResetWarning,0825.3,4.99,000.00,024.5,023.9,000.0,033.0,026.4,12.5,0000.0,0012.64,0006.08,0005.38
2024-02-14 00:57:00,SystemResetWarning,0825.4,5.00,000.00,024.5,023.9,000.0,033.0,026.4,12.6,0000.0,0012.89,0006.10,0005.39
2024-02-14 00:58:00,SystemResetWarning,0825.4,5.01,000.00,024.5,023.9,000.0,033.0,026.4,12.7,0000.0,0012.82,0006.05,0005.39
2024-02-14 00:59:00,SystemResetWarning,0825.4,5.01,000.00,024.5,023.9,000.0,033.0,026.4,12.7,0000.0,0012.69,0005.98,0005.36
